Satellite-Ground Cal/Val Region Overpasses Predictions

Prediction of Satellite NPP Overpassing Cal/Val Region: PacNW

Region Location: (Latitude: 10.00, Longitude: 139.50) to (Latitude: 22.70, Longitude: 165.60).

Table of predicted overpasses for the next 14.0 days since TLE Epoch: 1/13/2019
Interval Starting Time Starting Location Ending Time Ending Location
1 01/14/2019 03:30:22 ( 10.01, 147.10) 01/14/2019 03:33:58 ( 22.69, 144.09)
2 01/14/2019 16:02:16 ( 22.65, 144.32) 01/14/2019 16:05:51 ( 10.03, 141.32)
3 01/15/2019 03:11:20 ( 10.05, 151.85) 01/15/2019 03:14:55 ( 22.67, 148.85)
4 01/15/2019 15:43:13 ( 22.67, 149.08) 01/15/2019 15:46:48 ( 10.05, 146.08)
5 01/16/2019 02:52:18 ( 10.03, 156.61) 01/16/2019 02:55:53 ( 22.66, 153.61)
6 01/16/2019 15:24:11 ( 22.68, 153.85) 01/16/2019 15:27:47 ( 10.01, 150.83)
7 01/17/2019 02:33:15 ( 10.02, 161.37) 01/17/2019 02:36:51 ( 22.70, 158.36)
8 01/17/2019 15:05:09 ( 22.64, 158.59) 01/17/2019 15:08:44 ( 10.02, 155.59)
9 01/18/2019 02:14:53 ( 12.35, 165.60) 01/18/2019 02:17:49 ( 22.68, 163.12)
10 01/18/2019 03:55:43 ( 10.01, 140.76) 01/18/2019 03:57:15 ( 15.41, 139.51)
11 01/18/2019 14:46:07 ( 22.66, 163.36) 01/18/2019 14:49:42 ( 10.04, 160.35)
12 01/19/2019 03:36:41 ( 10.05, 145.51) 01/19/2019 03:40:16 ( 22.67, 142.51)
13 01/19/2019 14:30:04 ( 12.11, 165.59) 01/19/2019 14:30:39 ( 10.06, 165.12)
14 01/19/2019 16:08:34 ( 22.67, 142.74) 01/19/2019 16:12:09 ( 10.05, 139.74)
15 01/20/2019 03:17:39 ( 10.03, 150.27) 01/20/2019 03:21:14 ( 22.66, 147.27)
16 01/20/2019 15:49:32 ( 22.69, 147.50) 01/20/2019 15:53:08 ( 10.01, 144.49)
17 01/21/2019 02:58:37 ( 10.02, 155.03) 01/21/2019 03:02:12 ( 22.64, 152.03)
18 01/21/2019 15:30:30 ( 22.64, 152.25) 01/21/2019 15:34:05 ( 10.02, 149.25)
19 01/22/2019 02:39:34 ( 10.00, 159.79) 01/22/2019 02:43:10 ( 22.69, 156.78)
20 01/22/2019 15:11:28 ( 22.66, 157.01) 01/22/2019 15:15:03 ( 10.04, 154.01)
21 01/23/2019 02:20:33 ( 10.05, 164.54) 01/23/2019 02:24:08 ( 22.67, 161.54)
22 01/23/2019 14:52:25 ( 22.67, 161.78) 01/23/2019 14:56:00 ( 10.05, 158.77)
23 01/24/2019 03:43:00 ( 10.04, 143.93) 01/24/2019 03:46:35 ( 22.67, 140.93)
24 01/24/2019 14:34:28 ( 18.88, 165.60) 01/24/2019 14:36:59 ( 10.01, 163.52)
25 01/24/2019 16:14:53 ( 22.68, 141.16) 01/24/2019 16:16:49 ( 15.88, 139.51)
26 01/25/2019 03:23:58 ( 10.03, 148.69) 01/25/2019 03:27:33 ( 22.65, 145.69)
27 01/25/2019 15:55:50 ( 22.69, 145.92) 01/25/2019 15:59:26 ( 10.02, 142.91)
28 01/26/2019 03:04:55 ( 10.02, 153.45) 01/26/2019 03:08:31 ( 22.70, 150.43)
29 01/26/2019 15:36:49 ( 22.65, 150.67) 01/26/2019 15:40:24 ( 10.03, 147.67)
30 01/27/2019 02:45:53 ( 10.00, 158.21) 01/27/2019 02:49:29 ( 22.68, 155.20)


NCC Satellite Cal/Val Overpasses Prediction Service
